Find Starlink 34886

NORAD ID: 65683 Int'l Des: 2025-212 Owner: SPXS Country: US Constellation: starlink operational
LEOCIRCULAR

現在のビュー

3D地球を読み込み中...

About Starlink 34886

Starlink 34886 (NORAD 65683) is a starlink constellation satellite (v2 mini) launched Sep 21, 2025 by SPXS of US. It operates in LEO, CIRCULAR orbit with a mass of 575.00 kg.

Starlink 34886について

説明を読み込み中...

次回通過

Passes for default location (London). Set your location on the main map for personalized predictions.

高度履歴

Loading altitude history...

軌道要素

1 65683U 25212H 26195.07515700 .00010199 00000-0 33990-3 0 9995
2 65683 53.1575 117.9234 0001186 54.5664 305.5448 15.31706750 46553
Epoch: Jul 14, 2026 • Age: 7 hours

現在のステータス

高度 472.1 km
遠地点 / 近地点 N/A
速度 7.63 km/s
衛星直下点 -0.18°S, 128.31°W
打ち上げ日 Sep 21, 2025
運用期間 0.8 years
タイプ internet

技術仕様

分類 Payload
質量 575.00 kg
乾燥質量 530.00 kg
総質量 575.00 kg
長さ 0.30 m
直径 4.10 m
スパン 29.00 m
形状 Box + pan
製造者 SPXS
バスタイプ Starlink V2MO
フェーズステータス In Orbit
所有者/国 SPXS/US

Most Searched